Weslaco, TX

7:31 PM CDT on September 26, 2016 (GMT -0500)
Weslaco

Weather History for KT65 - October, 2013

Change the Weather History Date:

Friday, October 25, 2013

  Actual Average (KMFE) Record (KMFE)
Temperature  
Mean Temperature 74 °F 75 °F  
Max Temperature 88 °F 86 °F 95 °F (1942)
Min Temperature 61 °F 65 °F 48 °F (1979)
Degree Days  
Heating Degree Days 0 0  
Month to date heating degree days 0  
Since 1 July heating degree days 0  
Cooling Degree Days 10 11  
Month to date cooling degree days 324  
Year to date cooling degree days 4123  
Growing Degree Days 24 (Base 50)    
Moisture  
Dew Point 60 °F    
Average Humidity 65    
Maximum Humidity 87    
Minimum Humidity 36    
Precipitation  
Precipitation 0.00 in 0.06 in 4.11 in (1974)
Month to date precipitation 1.75  
Year to date precipitation 19.79  
Sea Level Pressure  
Sea Level Pressure 30.18 in    
Wind  
Wind Speed 4 mph (East)    
Max Wind Speed 15 mph    
Max Gust Speed 24 mph    
Visibility 9 miles    
Events      
T = Trace of Precipitation, MM = Missing Value Source: NWS Daily Summary

Daily Weather History Graph

Daily Weather History Graph

Search for Another Location

Airport or City:

Trip Planner

Search our weather history database for the weather conditions in past years. The results will help you decide how hot, cold, wet, or windy it might be!

Date:

Astronomy

Oct. 25, 2013 Rise Set
Actual Time 7:36 AM CDT 6:54 PM CDT
Civil Twilight 7:13 AM CDT 7:18 PM CDT
Nautical Twilight 6:45 AM CDT 7:45 PM CDT
Astronomical Twilight 6:19 AM CDT 8:12 PM CDT
Moon No Moon Rise 1:09 PM CDT (10/25)
Length of Visible Light 12h 05m
Length of Day
11h 18m
Waning Gibbous, 62% of the Moon is Illuminated
Oct 25
Waning Gibbous
Oct 26
Last Quarter
Nov 3
New
Nov 9
First Quarter
Nov 17
Full

Hourly Weather History & Observations

Time (CDT) Temp. Heat Index Dew Point Humidity Pressure Visibility Wind Dir Wind Speed Gust Speed Precip Events Conditions
12:15 AM 63.0 °F - 58.1 °F 84% 30.19 in 10.0 mi Calm Calm - N/A   Clear
12:35 AM 62.6 °F - 57.2 °F 82% 30.18 in 10.0 mi Calm Calm - N/A   Clear
12:55 AM 62.6 °F - 57.6 °F 84% 30.18 in 10.0 mi Calm Calm - N/A   Clear
1:15 AM 62.6 °F - 57.9 °F 85% 30.18 in 10.0 mi Calm Calm - N/A   Clear
1:35 AM 62.4 °F - 57.7 °F 85% 30.18 in 7.0 mi Calm Calm - N/A   Clear
1:55 AM 62.4 °F - 57.9 °F 85% 30.18 in 10.0 mi ENE 3.5 mph - N/A   Clear
2:15 AM 65.7 °F - 59.0 °F 79% 30.18 in 10.0 mi East 4.6 mph - N/A   Clear
2:35 AM 67.5 °F - 59.2 °F 75% 30.17 in 10.0 mi Calm Calm - N/A   Clear
2:55 AM 64.4 °F - 58.3 °F 80% 30.17 in 7.0 mi Calm Calm - N/A   Clear
3:15 AM 66.4 °F - 59.0 °F 77% 30.16 in 10.0 mi East 3.5 mph - N/A   Clear
3:35 AM 66.0 °F - 59.0 °F 78% 30.16 in 10.0 mi Calm Calm - N/A   Clear
3:55 AM 62.1 °F - 57.7 °F 86% 30.16 in 10.0 mi Calm Calm - N/A   Clear
4:15 AM 63.7 °F - 58.8 °F 84% 30.16 in 10.0 mi Calm Calm - N/A   Clear
4:35 AM 61.9 °F - 57.6 °F 86% 30.16 in 10.0 mi Calm Calm - N/A   Clear
4:55 AM 62.6 °F - 58.1 °F 85% 30.17 in 7.0 mi Calm Calm - N/A   Clear
5:15 AM 62.6 °F - 58.3 °F 86% 30.18 in 10.0 mi Calm Calm - N/A   Clear
5:35 AM 61.9 °F - 58.1 °F 87% 30.18 in 7.0 mi Calm Calm - N/A   Clear
5:55 AM 62.6 °F - 58.6 °F 87% 30.18 in 10.0 mi NE 3.5 mph - N/A   Clear
6:15 AM 61.7 °F - 57.7 °F 87% 30.19 in 7.0 mi Calm Calm - N/A   Clear
6:35 AM 62.1 °F - 58.3 °F 87% 30.19 in 10.0 mi Calm Calm - N/A   Clear
6:55 AM 63.3 °F - 59.0 °F 86% 30.20 in 10.0 mi Calm Calm - N/A   Clear
7:15 AM 63.0 °F - 59.2 °F 87% 30.20 in 10.0 mi Calm Calm - N/A   Clear
7:35 AM 63.0 °F - 59.2 °F 87% 30.20 in 7.0 mi NE 3.5 mph - N/A   Clear
7:55 AM 63.5 °F - 59.4 °F 86% 30.21 in 7.0 mi Calm Calm - N/A   Clear
8:15 AM 64.6 °F - 59.9 °F 85% 30.21 in 7.0 mi Calm Calm - N/A   Clear
8:35 AM 66.6 °F - 61.0 °F 82% 30.22 in 7.0 mi Calm Calm - N/A   Clear
8:55 AM 68.9 °F - 62.8 °F 81% 30.22 in 7.0 mi Calm Calm - N/A   Clear
9:15 AM 71.6 °F - 63.9 °F 76% 30.23 in 7.0 mi Calm Calm - N/A   Clear
9:35 AM 73.6 °F - 64.0 °F 72% 30.23 in 7.0 mi Calm Calm - N/A   Clear
9:55 AM 77.0 °F - 64.0 °F 64% 30.24 in 7.0 mi NE 4.6 mph - N/A   Clear
10:15 AM 79.3 °F - 63.1 °F 57% 30.24 in 10.0 mi ENE 6.9 mph - N/A   Clear
10:35 AM 81.3 °F 82.7 °F 63.7 °F 55% 30.24 in 10.0 mi ENE 5.8 mph - N/A   Clear
10:55 AM 82.9 °F 83.5 °F 61.3 °F 48% 30.24 in 7.0 mi East 6.9 mph - N/A   Clear
11:15 AM 83.5 °F 83.7 °F 61.0 °F 46% 30.24 in 7.0 mi East 11.5 mph 17.3 mph N/A   Scattered Clouds
11:35 AM 85.1 °F 84.4 °F 58.1 °F 40% 30.24 in 7.0 mi ESE 10.4 mph 18.4 mph N/A   Scattered Clouds
11:55 AM 85.3 °F 84.8 °F 59.2 °F 41% 30.23 in 10.0 mi East 11.5 mph 19.6 mph N/A   Scattered Clouds
12:15 PM 85.5 °F 85.0 °F 59.5 °F 41% 30.23 in 7.0 mi East 9.2 mph 17.3 mph N/A   Scattered Clouds
12:35 PM 85.5 °F 84.8 °F 58.3 °F 40% 30.22 in 10.0 mi ESE 9.2 mph 16.1 mph N/A   Mostly Cloudy
12:55 PM 85.8 °F 85.2 °F 58.6 °F 40% 30.21 in 10.0 mi East 11.5 mph 17.3 mph N/A   Mostly Cloudy
1:15 PM 86.9 °F 86.3 °F 59.4 °F 39% 30.20 in 10.0 mi East 11.5 mph 18.4 mph N/A   Scattered Clouds
1:35 PM 87.3 °F 86.7 °F 59.5 °F 39% 30.19 in 10.0 mi ESE 3.5 mph - N/A   Scattered Clouds
1:55 PM 85.8 °F 85.0 °F 58.5 °F 39% 30.18 in 10.0 mi ESE 11.5 mph 17.3 mph N/A   Scattered Clouds
2:15 PM 86.7 °F 85.9 °F 57.9 °F 38% 30.17 in 10.0 mi East 13.8 mph 18.4 mph N/A   Scattered Clouds
2:35 PM 88.2 °F 87.1 °F 58.3 °F 36% 30.16 in 10.0 mi ESE 12.7 mph 18.4 mph N/A   Scattered Clouds
2:55 PM 84.7 °F 84.6 °F 60.1 °F 43% 30.16 in 7.0 mi ESE 13.8 mph 23.0 mph N/A   Mostly Cloudy
3:15 PM 86.4 °F 85.9 °F 59.5 °F 40% 30.16 in 10.0 mi ESE 15.0 mph 21.9 mph N/A   Mostly Cloudy
3:35 PM 83.8 °F 84.1 °F 60.8 °F 46% 30.15 in 7.0 mi ESE 11.5 mph 20.7 mph N/A   Mostly Cloudy
3:55 PM 84.4 °F 84.8 °F 61.5 °F 46% 30.15 in 7.0 mi East 13.8 mph 21.9 mph N/A   Overcast
4:15 PM 84.4 °F 84.2 °F 59.9 °F 43% 30.15 in 7.0 mi East 11.5 mph 21.9 mph N/A   Mostly Cloudy
4:35 PM 83.7 °F 83.6 °F 59.9 °F 44% 30.15 in 10.0 mi East 11.5 mph 19.6 mph N/A   Overcast
4:55 PM 82.8 °F 82.8 °F 59.2 °F 45% 30.14 in 10.0 mi East 12.7 mph 23.0 mph N/A   Overcast
5:15 PM 83.3 °F 83.4 °F 60.1 °F 45% 30.14 in 10.0 mi East 15.0 mph 24.2 mph N/A   Mostly Cloudy
5:35 PM 83.3 °F 83.5 °F 60.6 °F 46% 30.14 in 10.0 mi East 13.8 mph 23.0 mph N/A   Scattered Clouds
5:55 PM 82.6 °F 82.8 °F 59.7 °F 46% 30.15 in 10.0 mi East 15.0 mph 21.9 mph N/A   Scattered Clouds
6:15 PM 81.7 °F 82.2 °F 60.4 °F 48% 30.15 in 10.0 mi East 15.0 mph 20.7 mph N/A   Scattered Clouds
6:35 PM 80.6 °F 81.5 °F 61.0 °F 51% 30.15 in 10.0 mi East 11.5 mph 20.7 mph N/A   Clear
6:55 PM 79.5 °F - 61.7 °F 54% 30.15 in 10.0 mi East 11.5 mph 18.4 mph N/A   Clear
7:15 PM 78.6 °F - 62.6 °F 58% 30.16 in 10.0 mi East 10.4 mph 17.3 mph N/A   Clear
7:35 PM 77.9 °F - 62.6 °F 59% 30.16 in 10.0 mi East 6.9 mph - N/A   Clear
7:55 PM 77.2 °F - 63.1 °F 62% 30.16 in 10.0 mi East 9.2 mph 17.3 mph N/A   Clear
8:15 PM 76.6 °F - 63.5 °F 64% 30.16 in 10.0 mi East 8.1 mph - N/A   Clear
8:35 PM 76.1 °F - 63.7 °F 65% 30.17 in 7.0 mi East 6.9 mph - N/A   Clear
8:55 PM 75.7 °F - 63.9 °F 66% 30.17 in 10.0 mi East 8.1 mph - N/A   Clear
9:15 PM 75.2 °F - 63.9 °F 68% 30.18 in 7.0 mi East 6.9 mph - N/A   Clear
9:35 PM 74.8 °F - 63.9 °F 69% 30.18 in 10.0 mi East 4.6 mph - N/A   Clear
9:55 PM 74.5 °F - 64.0 °F 70% 30.18 in 10.0 mi East 3.5 mph - N/A   Clear
10:15 PM 73.8 °F - 64.0 °F 72% 30.18 in 10.0 mi East 3.5 mph - N/A   Clear
10:35 PM 73.4 °F - 63.9 °F 72% 30.18 in 10.0 mi East 4.6 mph - N/A   Clear
10:55 PM 73.0 °F - 63.9 °F 73% 30.18 in 7.0 mi East 3.5 mph - N/A   Clear
11:15 PM 72.7 °F - 63.9 °F 74% 30.18 in 10.0 mi Calm Calm - N/A   Clear
11:35 PM 72.5 °F - 63.9 °F 74% 30.18 in 10.0 mi East 3.5 mph - N/A   Clear
11:55 PM 71.2 °F - 63.5 °F 76% 30.17 in 10.0 mi Calm Calm - N/A   Clear